Cobbosseecontee Lake Weather Center

Moon Phase Calendar



Cobbosseecontee Lake Water Level
Online Cameras

 


      

Current Conditions in Winthrop
10/20/2020 7:29:11 PM

55°F
Feels Like 56
Mist
Humidity
100%
Pressure
30.27"
Wind
1.5 mph (NNW)
Dew Point
55°F
UV Index
3/10 (Moderate)
Visibility
6 mi

Hourly Forecast

Date & Time Tue, Oct 20
7:00 PM
Tue, Oct 20
8:00 PM
Tue, Oct 20
9:00 PM
Tue, Oct 20
10:00 PM
Tue, Oct 20
11:00 PM
Wed, Oct 21
12:00 AM
Wed, Oct 21
1:00 AM
Wed, Oct 21
2:00 AM
Wed, Oct 21
3:00 AM
Wed, Oct 21
4:00 AM
Wed, Oct 21
5:00 AM
Wed, Oct 21
6:00 AM
Wed, Oct 21
7:00 AM
Wed, Oct 21
8:00 AM
Wed, Oct 21
9:00 AM
Wed, Oct 21
10:00 AM
Wed, Oct 21
11:00 AM
Wed, Oct 21
12:00 PM
Wed, Oct 21
1:00 PM
Wed, Oct 21
2:00 PM
Wed, Oct 21
3:00 PM
Wed, Oct 21
4:00 PM
Wed, Oct 21
5:00 PM
Wed, Oct 21
6:00 PM
Wed, Oct 21
7:00 PM
Wed, Oct 21
8:00 PM
Wed, Oct 21
9:00 PM
Wed, Oct 21
10:00 PM
Wed, Oct 21
11:00 PM
Thu, Oct 22
12:00 AM
Thu, Oct 22
1:00 AM
Thu, Oct 22
2:00 AM
Thu, Oct 22
3:00 AM
Thu, Oct 22
4:00 AM
Thu, Oct 22
5:00 AM
Thu, Oct 22
6:00 AM
Thu, Oct 22
7:00 AM
Thu, Oct 22
8:00 AM
Thu, Oct 22
9:00 AM
Thu, Oct 22
10:00 AM
Thu, Oct 22
11:00 AM
Thu, Oct 22
12:00 PM
Thu, Oct 22
1:00 PM
Thu, Oct 22
2:00 PM
Thu, Oct 22
3:00 PM
Thu, Oct 22
4:00 PM
Thu, Oct 22
5:00 PM
Thu, Oct 22
6:00 PM
Condition
Clouds

Clouds

Clouds

Clouds

Clouds

Clouds

Clouds

Clouds

Rain

Rain

Rain

Rain

Rain

Clouds

Rain

Clouds

Clouds

Clouds

Clouds

Clouds

Clouds

Clouds

Clouds

Clouds

Clouds

Clouds

Rain

Clouds

Rain

Clouds

Clouds

Clouds

Clouds

Clouds

Clouds

Clouds

Clouds

Clouds

Clear

Clouds

Clear

Clouds

Clouds

Clouds

Clouds

Clouds

Clouds

Clouds
Temperature 55°F55°F55°F54°F53°F54°F53°F52°F51°F51°F51°F50°F50°F50°F50°F52°F53°F53°F54°F55°F57°F59°F59°F58°F57°F59°F62°F63°F62°F63°F61°F60°F58°F57°F56°F54°F52°F53°F57°F60°F62°F64°F65°F65°F64°F63°F59°F54°F
Feels Like 56°F55°F54°F53°F52°F51°F49°F49°F47°F48°F48°F47°F47°F47°F47°F49°F51°F51°F52°F54°F55°F57°F57°F58°F55°F57°F60°F61°F61°F60°F60°F60°F58°F57°F55°F53°F51°F52°F55°F56°F57°F57°F58°F58°F58°F58°F55°F49°F
Cloudiness 90%92%98%99%100%100%100%100%100%100%100%100%100%100%100%100%100%100%100%100%100%90%88%91%90%91%100%100%100%97%78%70%78%56%48%41%34%30%2%13%9%18%23%19%30%19%14%11%
Visibility 6 mi6 mi6 mi6 mi6 mi6 mi6 mi6 mi6 mi6 mi6 mi6 mi6 mi6 mi6 mi6 mi6 mi6 mi6 mi6 mi6 mi6 mi6 mi6 mi6 mi1 mi2 mi6 mi6 mi6 mi6 mi6 mi6 mi6 mi6 mi6 mi6 mi6 mi6 mi6 mi6 mi6 mi6 mi6 mi6 mi6 mi6 mi6 mi
Precipitation 4%3%36%33%37%34%34%41%57%57%58%62%62%65%55%31%11%11%0%0%0%0%0%0%0%0%42%44%60%48%32%21%0%0%0%0%0%0%0%0%0%0%0%0%0%0%0%0%
Humidity 100%98%96%96%95%92%89%89%91%94%94%94%95%96%96%95%94%95%95%95%94%92%93%95%97%97%97%95%94%93%95%96%96%96%95%94%93%91%84%74%61%49%44%44%46%51%61%64%
Dew Point 55°F55°F54°F53°F52°F51°F50°F49°F49°F49°F49°F49°F49°F49°F49°F50°F51°F52°F53°F54°F56°F57°F57°F57°F57°F58°F61°F61°F61°F61°F60°F59°F57°F56°F55°F53°F51°F51°F52°F52°F49°F45°F43°F43°F43°F45°F46°F43°F
Pressure 30.27"30.27"30.3"30.33"30.33"30.33"30.33"30.33"30.33"30.33"30.33"30.33"30.33"30.33"30.33"30.3"30.27"30.27"30.21"30.18"30.18"30.15"30.15"30.12"30.12"30.12"30.12"30.12"30.12"30.09"30.09"30.12"30.12"30.12"30.15"30.15"30.18"30.21"30.21"30.21"30.21"30.21"30.21"30.24"30.24"30.24"30.27"30.3"
Wind Speed 1.5 mph2.2 mph3.2 mph2.9 mph4.4 mph6 mph6.6 mph5.4 mph6 mph5.7 mph5 mph5.8 mph5.1 mph5.1 mph5.9 mph4.6 mph3.5 mph3.7 mph4.2 mph5 mph6.3 mph7.2 mph8 mph5.4 mph7.8 mph8.6 mph9.9 mph9.2 mph9.2 mph10.4 mph8.5 mph5.7 mph3.9 mph3.1 mph3.5 mph3.2 mph2.4 mph2.8 mph4.9 mph7.4 mph8.5 mph9.3 mph9 mph9.2 mph8.1 mph6.6 mph5.4 mph5.8 mph
Wind
Direction
345°
NNW

N
48°
NE

N
25°
NNE
30°
NNE
43°
NE
34°
NE
60°
ENE
56°
NE
44°
NE
54°
NE
48°
NE
54°
NE
87°
E
91°
E
113°
ESE
122°
ESE
143°
SE
164°
SSE
168°
SSE
187°
S
207°
SSW
191°
S
180°
S
195°
SSW
205°
SSW
210°
SSW
211°
SSW
219°
SW
221°
SW
229°
SW
258°
WSW
291°
WNW
333°
NNW
354°
N
336°
NNW
333°
NNW
320°
NW
313°
NW
313°
NW
311°
NW
307°
NW
309°
NW
310°
NW
320°
NW
338°
NNW
350°
N

Daily Forecast

Date High Low Precip. Humidity
Today
Oct 20

Rain
62 °F
47 °F
56%
83%
Wednesday
Oct 21

Rain
62 °F
50 °F
65%
94%
Thursday
Oct 22

Clear
65 °F
46 °F
21%
61%
Friday
Oct 23

Clear
58 °F
44 °F
0%
64%
Saturday
Oct 24

Rain
68 °F
50 °F
35%
79%
Sunday
Oct 25

Clear
49 °F
38 °F
0%
58%
Monday
Oct 26

Rain
42 °F
35 °F
100%
96%
Tuesday
Oct 27

Rain
53 °F
43 °F
100%
88%
Wednesday
Oct 28

Rain
45 °F
35 °F
100%
94%
Thursday
Oct 29

Clear
52 °F
31 °F
0%
61%
Friday
Oct 30

Clouds
41 °F
33 °F
42%
66%
Saturday
Oct 31

Snow
35 °F
26 °F
100%
95%
Sunday
Nov 1

Clouds
37 °F
22 °F
6%
86%
Monday
Nov 2

Clear
42 °F
27 °F
6%
70%
Tuesday
Nov 3

Clouds
47 °F
27 °F
0%
72%
Wednesday
Nov 4

Clouds
53 °F
39 °F
0%
83%


Temperature 8-14 Day Outlook



Precipitation 8-14 Day Outlook




Quick Links
Cobbosseecontee Lake News
Cobbosseecontee Lake Photos
Cobbosseecontee Lake Videos




About Us
Contact Us
Site Map
Search Site
Advertise With Us
   
Cobbossee.LakesOnline.com
THE COBBOSSEECONTEE LAKE WEBSITE

Copyright 2020, Lakes Online
Privacy    |    Legal